Time,TemperatureF,DewpointF,PressureIn,WindDirection,WindDirectionDegrees,WindSpeedMPH,WindSpeedGustMPH,Humidity,HourlyPrecipIn,Conditions,Clouds,dailyrainin,SolarRadiationWatts/m^2,SoftwareType,DateUTC
2013-05-21 00:07:00,76.3,67.0,29.75,SSE,164,5.0,-999.0,74,-99.99,,,0.00,0,weatherlink.com 1.10,2013-05-21 04:07:00,
2013-05-21 00:22:00,75.9,67.0,29.75,South,177,7.0,-999.0,75,-99.99,,,0.00,0,weatherlink.com 1.10,2013-05-21 04:22:00,
2013-05-21 00:37:00,75.7,67.0,29.75,South,183,7.0,-999.0,75,-99.99,,,0.00,0,weatherlink.com 1.10,2013-05-21 04:37:00,
2013-05-21 00:52:00,75.2,67.0,29.77,SSE,164,9.0,-999.0,76,-99.99,,,0.00,0,weatherlink.com 1.10,2013-05-21 04:52:00,
2013-05-21 01:07:00,75.4,67.0,29.77,South,169,10.0,-999.0,76,-99.99,,,0.00,0,weatherlink.com 1.10,2013-05-21 05:07:00,
2013-05-21 01:22:00,75.5,67.0,29.76,SSE,168,11.0,-999.0,76,-99.99,,,0.00,0,weatherlink.com 1.10,2013-05-21 05:22:00,
2013-05-21 01:37:00,75.5,68.0,29.76,South,183,15.0,-999.0,77,-99.99,,,0.00,0,weatherlink.com 1.10,2013-05-21 05:37:00,
2013-05-21 01:52:00,75.1,68.0,29.76,South,175,10.0,-999.0,78,-99.99,,,0.00,0,weatherlink.com 1.10,2013-05-21 05:52:00,
2013-05-21 02:07:00,74.8,68.0,29.75,South,178,15.0,-999.0,80,-99.99,,,0.00,0,weatherlink.com 1.10,2013-05-21 06:07:00,
2013-05-21 02:22:00,74.1,69.0,29.75,SSE,165,11.0,-999.0,83,-99.99,,,0.00,0,weatherlink.com 1.10,2013-05-21 06:22:00,
2013-05-21 02:37:00,73.9,69.0,29.73,South,182,13.0,-999.0,83,-99.99,,,0.00,0,weatherlink.com 1.10,2013-05-21 06:37:00,
2013-05-21 02:52:00,73.9,69.0,29.73,South,186,12.0,-999.0,83,-99.99,,,0.00,0,weatherlink.com 1.10,2013-05-21 06:52:00,
2013-05-21 03:07:00,74.1,69.0,29.72,South,188,18.0,-999.0,83,-99.99,,,0.00,0,weatherlink.com 1.10,2013-05-21 07:07:00,
2013-05-21 03:22:00,74.4,69.0,29.72,South,184,16.0,-999.0,82,-99.99,,,0.00,0,weatherlink.com 1.10,2013-05-21 07:22:00,
2013-05-21 03:37:00,74.3,69.0,29.71,South,186,17.0,-999.0,82,-99.99,,,0.00,0,weatherlink.com 1.10,2013-05-21 07:37:00,
2013-05-21 03:52:00,74.6,68.0,29.72,South,185,17.0,-999.0,81,-99.99,,,0.00,0,weatherlink.com 1.10,2013-05-21 07:52:00,
2013-05-21 04:07:00,70.5,66.0,29.75,SSW,200,17.0,-999.0,84,-99.99,,,0.01,0,weatherlink.com 1.10,2013-05-21 08:07:00,
2013-05-21 04:22:00,68.5,65.0,29.76,WSW,241,8.0,-999.0,88,-99.99,,,0.01,0,weatherlink.com 1.10,2013-05-21 08:22:00,
2013-05-21 04:37:00,67.3,63.0,29.76,SW,215,10.0,-999.0,87,-99.99,,,0.01,0,weatherlink.com 1.10,2013-05-21 08:37:00,
2013-05-21 04:52:00,66.6,63.0,29.75,SW,228,5.0,-999.0,88,-99.99,,,0.01,0,weatherlink.com 1.10,2013-05-21 08:52:00,
2013-05-21 05:07:00,66.4,63.0,29.75,SSW,192,7.0,-999.0,89,-99.99,,,0.01,0,weatherlink.com 1.10,2013-05-21 09:07:00,
2013-05-21 05:22:00,66.1,63.0,29.74,South,182,9.0,-999.0,90,-99.99,,,0.01,0,weatherlink.com 1.10,2013-05-21 09:22:00,
2013-05-21 05:37:00,65.8,63.0,29.72,SSE,161,4.0,-999.0,91,-99.99,,,0.01,0,weatherlink.com 1.10,2013-05-21 09:37:00,
2013-05-21 05:52:00,65.4,63.0,29.72,SSE,153,4.0,-999.0,92,-99.99,,,0.01,0,weatherlink.com 1.10,2013-05-21 09:52:00,
2013-05-21 06:07:00,65.1,63.0,29.72,SSE,168,3.0,-999.0,92,-99.99,,,0.01,0,weatherlink.com 1.10,2013-05-21 10:07:00,
2013-05-21 06:22:00,64.9,63.0,29.73,South,174,8.0,-999.0,92,-99.99,,,0.01,0,weatherlink.com 1.10,2013-05-21 10:22:00,
2013-05-21 06:37:00,64.4,62.0,29.75,South,186,7.0,-999.0,93,-99.99,,,0.01,9,weatherlink.com 1.10,2013-05-21 10:37:00,
2013-05-21 06:52:00,64.5,63.0,29.76,South,191,7.0,-999.0,93,-99.99,,,0.01,30,weatherlink.com 1.10,2013-05-21 10:52:00,
2013-05-21 07:07:00,64.9,63.0,29.76,South,179,11.0,-999.0,92,-99.99,,,0.01,70,weatherlink.com 1.10,2013-05-21 11:07:00,
2013-05-21 07:22:00,65.4,63.0,29.77,South,191,9.0,-999.0,91,-99.99,,,0.01,70,weatherlink.com 1.10,2013-05-21 11:22:00,
2013-05-21 07:37:00,65.9,63.0,29.77,South,190,8.0,-999.0,89,-99.99,,,0.01,79,weatherlink.com 1.10,2013-05-21 11:37:00,
2013-05-21 07:52:00,66.9,63.0,29.77,SSW,197,12.0,-999.0,88,-99.99,,,0.01,121,weatherlink.com 1.10,2013-05-21 11:52:00,
2013-05-21 08:07:00,66.5,62.0,29.77,South,191,13.0,-999.0,86,-99.99,,,0.01,58,weatherlink.com 1.10,2013-05-21 12:07:00,
2013-05-21 08:22:00,66.5,62.0,29.77,South,183,10.0,-999.0,86,-99.99,,,0.01,83,weatherlink.com 1.10,2013-05-21 12:22:00,
2013-05-21 08:37:00,66.4,62.0,29.77,South,174,13.0,-999.0,86,-99.99,,,0.01,51,weatherlink.com 1.10,2013-05-21 12:37:00,
2013-05-21 08:52:00,66.0,62.0,29.77,South,188,15.0,-999.0,86,-99.99,,,0.01,132,weatherlink.com 1.10,2013-05-21 12:52:00,
2013-05-21 09:07:00,66.1,62.0,29.77,SSW,197,12.0,-999.0,87,-99.99,,,0.02,100,weatherlink.com 1.10,2013-05-21 13:07:00,
2013-05-21 09:22:00,66.4,63.0,29.76,South,171,9.0,-999.0,87,-99.99,,,0.02,148,weatherlink.com 1.10,2013-05-21 13:22:00,
2013-05-21 09:37:00,66.6,63.0,29.75,South,174,6.0,-999.0,87,-99.99,,,0.02,186,weatherlink.com 1.10,2013-05-21 13:37:00,
2013-05-21 09:52:00,67.2,63.0,29.74,South,180,8.0,-999.0,86,-99.99,,,0.02,309,weatherlink.com 1.10,2013-05-21 13:52:00,
2013-05-21 10:07:00,68.1,64.0,29.75,SE,139,9.0,-999.0,85,-99.99,,,0.02,589,weatherlink.com 1.10,2013-05-21 14:07:00,
2013-05-21 10:22:00,70.1,64.0,29.77,SW,214,18.0,-999.0,81,-99.99,,,0.02,696,weatherlink.com 1.10,2013-05-21 14:22:00,
2013-05-21 10:37:00,70.7,64.0,29.76,SW,222,14.0,-999.0,79,-99.99,,,0.02,691,weatherlink.com 1.10,2013-05-21 14:37:00,
2013-05-21 10:52:00,72.3,65.0,29.76,South,191,13.0,-999.0,77,-99.99,,,0.02,710,weatherlink.com 1.10,2013-05-21 14:52:00,
2013-05-21 11:07:00,72.6,63.0,29.74,South,187,13.0,-999.0,73,-99.99,,,0.02,394,weatherlink.com 1.10,2013-05-21 15:07:00,
2013-05-21 11:23:00,72.7,64.0,29.75,SSW,199,10.0,-999.0,74,-99.99,,,0.02,392,weatherlink.com 1.10,2013-05-21 15:23:00,
2013-05-21 11:36:00,74.1,65.0,29.75,South,191,11.0,-999.0,72,-99.99,,,0.02,526,weatherlink.com 1.10,2013-05-21 15:36:00,
2013-05-21 11:51:00,75.5,65.0,29.75,SSW,195,13.0,-999.0,69,-99.99,,,0.02,763,weatherlink.com 1.10,2013-05-21 15:51:00,
2013-05-21 12:06:00,75.9,64.0,29.74,SSW,201,20.0,-999.0,66,-99.99,,,0.02,545,weatherlink.com 1.10,2013-05-21 16:06:00,
2013-05-21 12:21:00,77.3,64.0,29.75,SSW,211,18.0,-999.0,63,-99.99,,,0.02,872,weatherlink.com 1.10,2013-05-21 16:21:00,
2013-05-21 12:36:00,78.4,63.0,29.74,South,176,19.0,-999.0,60,-99.99,,,0.02,770,weatherlink.com 1.10,2013-05-21 16:36:00,
2013-05-21 12:51:00,79.4,64.0,29.74,South,182,21.0,-999.0,60,-99.99,,,0.02,902,weatherlink.com 1.10,2013-05-21 16:51:00,
2013-05-21 13:06:00,80.4,64.0,29.73,South,190,13.0,-999.0,58,-99.99,,,0.02,891,weatherlink.com 1.10,2013-05-21 17:06:00,
2013-05-21 13:21:00,80.1,63.0,29.73,SW,233,13.0,-999.0,57,-99.99,,,0.02,923,weatherlink.com 1.10,2013-05-21 17:21:00,
2013-05-21 13:36:00,80.8,63.0,29.72,SSW,206,17.0,-999.0,54,-99.99,,,0.02,884,weatherlink.com 1.10,2013-05-21 17:36:00,
2013-05-21 13:51:00,82.0,62.0,29.71,SSW,205,12.0,-999.0,51,-99.99,,,0.02,872,weatherlink.com 1.10,2013-05-21 17:51:00,
2013-05-21 14:06:00,82.9,62.0,29.71,SSW,195,16.0,-999.0,50,-99.99,,,0.02,837,weatherlink.com 1.10,2013-05-21 18:06:00,
2013-05-21 14:21:00,82.8,63.0,29.71,SW,215,21.0,-999.0,51,-99.99,,,0.02,933,weatherlink.com 1.10,2013-05-21 18:21:00,
2013-05-21 14:36:00,83.4,63.0,29.71,WSW,237,17.0,-999.0,50,-99.99,,,0.02,953,weatherlink.com 1.10,2013-05-21 18:36:00,
2013-05-21 14:51:00,83.4,62.0,29.71,SSW,208,11.0,-999.0,49,-99.99,,,0.02,895,weatherlink.com 1.10,2013-05-21 18:51:00,
2013-05-21 15:06:00,83.7,63.0,29.71,SSW,212,13.0,-999.0,49,-99.99,,,0.02,779,weatherlink.com 1.10,2013-05-21 19:06:00,
2013-05-21 15:21:00,84.6,62.0,29.71,SW,218,21.0,-999.0,47,-99.99,,,0.02,895,weatherlink.com 1.10,2013-05-21 19:21:00,
2013-05-21 15:36:00,84.8,62.0,29.71,South,189,18.0,-999.0,47,-99.99,,,0.02,805,weatherlink.com 1.10,2013-05-21 19:36:00,
2013-05-21 15:51:00,85.5,62.0,29.71,SSW,210,16.0,-999.0,46,-99.99,,,0.02,830,weatherlink.com 1.10,2013-05-21 19:51:00,
2013-05-21 16:06:00,85.2,62.0,29.71,SW,222,22.0,-999.0,46,-99.99,,,0.02,779,weatherlink.com 1.10,2013-05-21 20:06:00,
2013-05-21 16:21:00,85.0,62.0,29.70,SSW,196,18.0,-999.0,46,-99.99,,,0.02,149,weatherlink.com 1.10,2013-05-21 20:21:00,
2013-05-21 16:36:00,85.0,61.0,29.69,South,176,25.0,-999.0,45,-99.99,,,0.02,218,weatherlink.com 1.10,2013-05-21 20:36:00,
2013-05-21 16:51:00,85.0,61.0,29.69,South,189,20.0,-999.0,45,-99.99,,,0.02,257,weatherlink.com 1.10,2013-05-21 20:51:00,
2013-05-21 17:06:00,85.0,61.0,29.69,SW,219,14.0,-999.0,44,-99.99,,,0.02,230,weatherlink.com 1.10,2013-05-21 21:06:00,
2013-05-21 17:21:00,84.6,61.0,29.69,SSW,195,13.0,-999.0,45,-99.99,,,0.02,209,weatherlink.com 1.10,2013-05-21 21:21:00,
2013-05-21 17:36:00,84.9,61.0,29.69,SSW,206,15.0,-999.0,44,-99.99,,,0.02,234,weatherlink.com 1.10,2013-05-21 21:36:00,
2013-05-21 17:51:00,84.8,62.0,29.68,SSW,192,21.0,-999.0,46,-99.99,,,0.02,466,weatherlink.com 1.10,2013-05-21 21:51:00,
2013-05-21 18:06:00,85.3,62.0,29.68,SSW,208,21.0,-999.0,45,-99.99,,,0.02,485,weatherlink.com 1.10,2013-05-21 22:06:00,
2013-05-21 18:21:00,83.8,62.0,29.68,SSW,196,17.0,-999.0,48,-99.99,,,0.02,199,weatherlink.com 1.10,2013-05-21 22:21:00,
2013-05-21 18:36:00,84.1,63.0,29.68,SSW,195,12.0,-999.0,49,-99.99,,,0.02,171,weatherlink.com 1.10,2013-05-21 22:36:00,
2013-05-21 18:51:00,83.3,63.0,29.67,South,186,18.0,-999.0,51,-99.99,,,0.02,220,weatherlink.com 1.10,2013-05-21 22:51:00,
2013-05-21 19:06:00,83.0,64.0,29.67,South,178,16.0,-999.0,53,-99.99,,,0.02,142,weatherlink.com 1.10,2013-05-21 23:06:00,
2013-05-21 19:21:00,82.3,64.0,29.67,South,182,14.0,-999.0,55,-99.99,,,0.02,155,weatherlink.com 1.10,2013-05-21 23:21:00,
2013-05-21 19:36:00,82.0,65.0,29.67,South,190,17.0,-999.0,56,-99.99,,,0.02,139,weatherlink.com 1.10,2013-05-21 23:36:00,
2013-05-21 19:51:00,81.2,64.0,29.67,South,179,16.0,-999.0,57,-99.99,,,0.02,142,weatherlink.com 1.10,2013-05-21 23:51:00,
2013-05-21 20:06:00,80.8,65.0,29.67,South,176,19.0,-999.0,58,-99.99,,,0.02,95,weatherlink.com 1.10,2013-05-22 00:06:00,
2013-05-21 20:21:00,80.1,65.0,29.67,South,184,13.0,-999.0,60,-99.99,,,0.02,76,weatherlink.com 1.10,2013-05-22 00:21:00,
2013-05-21 20:36:00,79.4,65.0,29.67,SSW,199,17.0,-999.0,61,-99.99,,,0.02,35,weatherlink.com 1.10,2013-05-22 00:36:00,
2013-05-21 20:51:00,78.4,64.0,29.68,SSW,201,14.0,-999.0,62,-99.99,,,0.02,12,weatherlink.com 1.10,2013-05-22 00:51:00,
2013-05-21 21:06:00,77.6,64.0,29.68,SSW,193,9.0,-999.0,63,-99.99,,,0.02,5,weatherlink.com 1.10,2013-05-22 01:06:00,
2013-05-21 21:21:00,76.3,64.0,29.68,SSW,193,8.0,-999.0,66,-99.99,,,0.02,0,weatherlink.com 1.10,2013-05-22 01:21:00,
2013-05-21 21:36:00,75.5,64.0,29.69,South,186,9.0,-999.0,67,-99.99,,,0.02,0,weatherlink.com 1.10,2013-05-22 01:36:00,
2013-05-21 21:51:00,74.6,63.0,29.69,South,179,7.0,-999.0,68,-99.99,,,0.02,0,weatherlink.com 1.10,2013-05-22 01:51:00,
2013-05-21 22:06:00,74.0,63.0,29.70,SSW,192,6.0,-999.0,69,-99.99,,,0.02,0,weatherlink.com 1.10,2013-05-22 02:06:00,
2013-05-21 22:21:00,73.7,63.0,29.70,South,190,7.0,-999.0,70,-99.99,,,0.02,0,weatherlink.com 1.10,2013-05-22 02:21:00,
2013-05-21 22:36:00,74.6,64.0,29.71,SSW,202,10.0,-999.0,69,-99.99,,,0.02,0,weatherlink.com 1.10,2013-05-22 02:36:00,
2013-05-21 22:51:00,74.5,64.0,29.71,SSW,193,10.0,-999.0,70,-99.99,,,0.02,0,weatherlink.com 1.10,2013-05-22 02:51:00,
2013-05-21 23:06:00,74.5,64.0,29.71,South,191,13.0,-999.0,70,-99.99,,,0.02,0,weatherlink.com 1.10,2013-05-22 03:06:00,
2013-05-21 23:21:00,74.2,64.0,29.71,SSW,201,11.0,-999.0,71,-99.99,,,0.02,0,weatherlink.com 1.10,2013-05-22 03:21:00,
2013-05-21 23:36:00,73.5,64.0,29.72,SSW,192,10.0,-999.0,72,-99.99,,,0.02,0,weatherlink.com 1.10,2013-05-22 03:36:00,
2013-05-21 23:51:00,72.8,64.0,29.71,SSW,202,8.0,-999.0,74,-99.99,,,0.02,0,weatherlink.com 1.10,2013-05-22 03:51:00,